Location: LC-39B
(28.6273°N, 80.6211°W)
Time: 16:09:31
(UTC+00:00)

ISS - Visible Passes

Search period start: 01 September 2015 00:00
Search period end: 11 September 2015 00:00
Orbit: 400 x 402 km, 51.6° (Epoch: 01 September)

Date Brightness Start Highest point End Pass type
(mag) Time Alt. Az. Time Alt. Az. Time Alt. Az.
04 Sep -0.5 10:24:16 10° SSE 10:26:12 15° SE 10:28:15 10° E visible
06 Sep -2.4 10:12:47 10° SSW 10:15:53 45° SE 10:19:01 10° NE visible
07 Sep -1.0 09:22:05 18° SE 09:22:43 19° SE 09:25:06 10° E visible
08 Sep -3.1 10:04:10 27° WSW 10:05:39 53° NW 10:08:51 10° NNE visible
09 Sep -1.7 09:13:31 35° ENE 09:13:31 35° ENE 09:15:36 10° NE visible
10 Sep -1.7 09:55:22 20° NW 09:55:36 20° NW 09:58:04 10° N visible
